| time (UTC) | temp F | wind direction | speed knots | gust knots | rain 1hr in | rain 24hr in | rain mn in | humidity % | barometer mb |
| 20260506041855 | 43 | 220 | 17.4 | 24.3 | 0.00 | 0.00 | 0.00 | 99 | |
| 20260506031656 | 43 | 220 | 18.2 | 24.3 | 0.00 | 0.00 | 0.00 | 99 | |
| 20260506021656 | 43 | 230 | 17.4 | 27.8 | 0.00 | 0.00 | 0.00 | 99 | |
| 20260506011756 | 43 | 230 | 17.4 | 25.2 | 0.00 | 0.00 | 0.00 | 99 | |
| 20260506001655 | 43 | 260 | 24.3 | 32.2 | 0.00 | 0.00 | 0.00 | 93 | |
| 20260505231655 | 45 | 270 | 24.3 | 33.0 | 0.00 | 0.00 | 0.00 | 81 | |
| 20260505221654 | 45 | 290 | 17.4 | 24.3 | 0.00 | 0.00 | 0.00 | 87 | |
| 20260505211712 | 46 | 280 | 14.8 | 0.0 | 0.00 | 0.00 | 0.00 | 87 | |
| 20260505201711 | 48 | 230 | 18.2 | 0.0 | 0.00 | 0.00 | 0.00 | 76 | |
| 20260505191712 | 46 | 240 | 20.9 | 0.0 | 0.00 | 0.00 | 0.00 | 87 | |
| 20260505181655 | 50 | 310 | 14.8 | 22.6 | 0.00 | 0.00 | 0.00 | 76 | |
| 20260505171655 | 54 | 220 | 11.3 | 0.0 | 0.00 | 0.00 | 0.00 | 62 | |
| 20260505161755 | 59 | 90 | 1.7 | 0.0 | 0.00 | 0.00 | 0.00 | 47 | |
| 20260505151654 | 63 | 140 | 4.3 | 0.0 | 0.00 | 0.00 | 0.00 | 39 | |
| 20260505121655 | 61 | 120 | 2.6 | 0.0 | 0.00 | 0.00 | 0.00 | 44 | |
| 20260505111655 | 64 | 340 | 2.6 | 8.7 | 0.00 | 0.00 | 0.00 | 39 | |
| 20260505101655 | 63 | 330 | 5.2 | 11.3 | 0.00 | 0.00 | 0.00 | 39 | |
| 20260505091655 | 61 | 340 | 6.1 | 0.0 | 0.00 | 0.00 | 0.00 | 41 | |
| 20260505081656 | 59 | 330 | 4.3 | 0.0 | 0.00 | 0.00 | 0.00 | 47 | |
| 20260505071654 | 57 | 320 | 1.7 | 0.0 | 0.00 | 0.00 | 0.00 | 54 | |
| 20260505061656 | 55 | 330 | 2.6 | 0.0 | 0.00 | 0.00 | 0.00 | 54 |